CW8136 Weather Reports


Display with metric or nautical units.
time (UTC)temp
F
wind
direction
speed
MPH
gust
MPH
rain 1hr
in
rain 24hr
in
rain mn
in
humidity
%
barometer
mb
20220926034638 64 333 4.0 4.0 0.00 0.00 0.00 25 1011.0
20220926033618 64 338 7.0 11.0 0.00 0.00 0.00 21 1011.0
20220926032657 64 334 8.0 9.0 0.00 0.00 0.00 18 1011.0
20220926031618 65 356 9.0 10.0 0.00 0.00 0.00 18 1011.0
20220926030616 66 332 5.0 11.0 0.00 0.00 0.00 18 1011.0
20220926025616 67 320 5.0 7.0 0.00 0.00 0.00 17 1012.0
20220926024617 67 349 5.0 6.0 0.00 0.00 0.00 17 1012.0
20220926023617 67 321 4.0 6.0 0.00 0.00 0.00 20 1012.0
20220926022616 67 8 5.0 6.0 0.00 0.00 0.00 22 1012.0
20220926021637 66 321 4.0 4.0 0.00 0.00 0.00 22 1012.0
20220926020638 67 351 4.0 5.0 0.00 0.00 0.00 23 1012.0
20220926015656 66 9 4.0 9.0 0.00 0.00 0.00 23 1013.0
20220926014618 65 22 4.0 6.0 0.00 0.00 0.00 23 1013.0
20220926013638 64 299 6.0 8.0 0.00 0.00 0.00 23 1013.0
20220926012617 65 346 4.0 6.0 0.00 0.00 0.00 24 1013.0
20220926011638 65 343 6.0 8.0 0.00 0.00 0.00 24 1013.0
20220926010618 64 6 6.0 9.0 0.00 0.00 0.00 26 1013.0
20220926005617 64 359 6.0 8.0 0.00 0.00 0.00 28 1013.0
20220926004618 63 338 6.0 6.0 0.00 0.00 0.00 30 1013.0
20220926003618 63 348 5.0 9.0 0.00 0.00 0.00 31 1012.0
20220926002638 63 9 7.0 15.0 0.00 0.00 0.00 33 1013.0
20220926001618 62 0 6.0 6.0 0.00 0.00 0.00 34 1013.0
20220926000618 63 25 5.0 9.0 0.00 0.00 0.00 34 1014.0
20220925235737 0 321 5.0 8.0 0.00 0.00 0.00 1014.0
20220925234617 63 333 6.0 7.0 0.00 0.00 0.00 35 1014.0
20220925233638 62 23 4.0 6.0 0.00 0.00 0.00 37 1014.0
20220925232638 61 4 6.0 6.0 0.00 0.00 0.00 38 1014.0
20220925231618 60 349 6.0 9.0 0.00 0.00 0.00 39 1014.0
20220925230657 60 343 5.0 6.0 0.00 0.00 0.00 41 1014.0
20220925225616 60 346 3.0 6.0 0.00 0.00 0.00 43 1014.0
20220925224656 59 45 5.0 8.0 0.00 0.00 0.00 44 1014.0
20220925223637 58 41 6.0 7.0 0.00 0.00 0.00 45 1014.0
20220925222617 0 26 4.0 9.0 0.00 0.00 0.00 1014.0
20220925221618 58 9 4.0 6.0 0.00 0.00 0.00 46 1014.0
20220925220618 57 18 5.0 6.0 0.00 0.00 0.00 46 1014.0
20220925215620 57 0 3.0 9.0 0.00 0.00 0.00 47 1014.0
20220925214617 56 338 2.0 5.0 0.00 0.00 0.00 47 1014.0
20220925212616 55 338 3.0 4.0 0.00 0.00 0.00 47 1014.0
20220925212317 55 338 3.0 4.0 0.00 0.00 0.00 47 1014.0
20220925211316 55 338 1.0 3.0 0.00 0.00 0.00 47 1013.0
20220925210317 55 338 2.0 3.0 0.00 0.00 0.00 47 1013.0
20220925205317 54 338 2.0 3.0 0.00 0.00 0.00 47 1014.0
20220925204338 54 315 2.0 3.0 0.00 0.00 0.00 47 1014.0
20220925203318 0 315 2.0 4.0 0.00 0.00 0.00 1014.0
20220925202318 54 315 2.0 3.0 0.00 0.00 0.00 47 1013.0
20220925201319 54 36 5.0 6.0 0.00 0.00 0.00 47 1013.0
20220925200317 53 20 4.0 6.0 0.00 0.00 0.00 47 1013.0
20220925195419 53 23 3.0 5.0 0.00 0.00 0.00 47 1014.0
20220925194317 53 17 4.0 6.0 0.00 0.00 0.00 46 1013.0
20220925193357 53 35 3.0 6.0 0.00 0.00 0.00 46 1013.0
20220925192316 53 23 3.0 3.0 0.00 0.00 0.00 46 1013.0
20220925191315 53 23 3.0 4.0 0.00 0.00 0.00 45 1013.0
20220925190327 53 30 3.0 4.0 0.00 0.00 0.00 44 1013.0
20220925185338 53 0 4.0 4.0 0.00 0.00 0.00 44 1013.0
20220925184316 53 23 4.0 5.0 0.00 0.00 0.00 43 1014.0
20220925183335 54 15 3.0 4.0 0.00 0.00 0.00 43 1014.0
20220925182317 0 23 2.0 4.0 0.00 0.00 0.00 1014.0
20220925181316 54 45 2.0 3.0 0.00 0.00 0.00 42 1013.0
20220925180317 54 68 1.0 1.0 0.00 0.00 0.00 41 1013.0
20220925175317 54 23 1.0 2.0 0.00 0.00 0.00 41 1013.0
20220925174337 54 40 3.0 4.0 0.00 0.00 0.00 40 1013.0
20220925173317 54 23 2.0 4.0 0.00 0.00 0.00 40 1013.0
20220925172317 54 23 2.0 3.0 0.00 0.00 0.00 39 1014.0
20220925171320 55 27 3.0 6.0 0.00 0.00 0.00 39 1013.0
20220925170336 55 23 2.0 3.0 0.00 0.00 0.00 39 1013.0
20220925165315 55 41 3.0 5.0 0.00 0.00 0.00 38 1013.0
20220925164317 55 27 4.0 7.0 0.00 0.00 0.00 38 1014.0
20220925163337 55 9 3.0 6.0 0.00 0.00 0.00 38 1014.0
20220925162317 54 9 3.0 6.0 0.00 0.00 0.00 38 1014.0
20220925161316 54 19 4.0 5.0 0.00 0.00 0.00 38 1014.0
20220925160317 54 30 4.0 5.0 0.00 0.00 0.00 38 1014.0
20220925155318 54 9 3.0 6.0 0.00 0.00 0.00 37 1014.0
20220925154318 54 14 3.0 5.0 0.00 0.00 0.00 37 1014.0
20220925153317 55 50 3.0 4.0 0.00 0.00 0.00 37 1014.0
20220925152317 55 34 3.0 5.0 0.00 0.00 0.00 37 1014.0
20220925151317 0 28 4.0 5.0 0.00 0.00 0.00 1015.0
20220925150317 55 15 3.0 6.0 0.00 0.00 0.00 36 1015.0
20220925145336 55 23 4.0 5.0 0.00 0.00 0.00 36
20220925144316 0 343 3.0 5.0 0.00 0.00 0.00 1015.0
20220925143323 55 0 2.0 3.0 0.00 0.00 0.00 36
20220925142357 55 27 3.0 5.0 0.00 0.00 0.00 36
20220925141316 0 32 3.0 6.0 0.00 0.00 0.00 1015.0
20220925140315 55 30 4.0 5.0 0.00 0.00 0.00 36
20220925135315 55 23 4.0 6.0 0.00 0.00 0.00 36
20220925134316 0 18 5.0 5.0 0.00 0.00 0.00 1014.0
20220925133337 55 23 4.0 5.0 0.00 0.00 0.00 36
20220925132316 55 36 3.0 5.0 0.00 0.00 0.00 35
20220925131316 56 5 3.0 6.0 0.00 0.00 0.00 35
20220925130324 56 30 4.0 6.0 0.00 0.00 0.00 35
20220925125316 56 23 4.0 6.0 0.00 0.00 0.00 35
20220925124317 56 0 4.0 6.0 0.00 0.00 0.00 35
20220925123316 55 346 5.0 5.0 0.00 0.00 0.00 35 1016.0
20220925122347 55 23 2.0 2.0 0.00 0.00 0.00 35
20220925121317 55 23 2.0 6.0 0.00 0.00 0.00 35
20220925120336 55 23 3.0 3.0 0.00 0.00 0.00 34
20220925115316 55 23 2.0 3.0 0.00 0.00 0.00 33
20220925114339 55 23 2.0 4.0 0.00 0.00 0.00 32
20220925113315 55 23 2.0 3.0 0.00 0.00 0.00 30
20220925112317 56 23 2.0 3.0 0.00 0.00 0.00 30
20220925111336 56 23 3.0 4.0 0.00 0.00 0.00 29
20220925110315 56 23 4.0 5.0 0.00 0.00 0.00 29
20220925105316 56 338 3.0 6.0 0.00 0.00 0.00 29
20220925104316 56 3 3.0 6.0 0.00 0.00 0.00 29 1014.0
20220925103317 56 23 4.0 8.0 0.00 0.00 0.00 29 1014.0
20220925102335 56 23 4.0 4.0 0.00 0.00 0.00 28 1014.0
20220925101336 56 0 5.0 5.0 0.00 0.00 0.00 28 1014.0
20220925100316 56 23 2.0 2.0 0.00 0.00 0.00 28 1014.0
20220925095317 56 23 3.0 3.0 0.00 0.00 0.00 27 1013.0
20220925094356 56 23 2.0 3.0 0.00 0.00 0.00 27
20220925093337 56 68 1.0 2.0 0.00 0.00 0.00 26 1014.0
20220925092337 56 68 1.0 4.0 0.00 0.00 0.00 25 1014.0
20220925091317 56 68 1.0 2.0 0.00 0.00 0.00 25 1014.0
20220925090356 57 90 1.0 2.0 0.00 0.00 0.00 22 1014.0
20220925085316 0 0.0 2.0 0.00 0.00 0.00
20220925084417 57 0.0 0.0 0.00 0.00 0.00 19
20220925083336 58 0.0 0.0 0.00 0.00 0.00 14 1014.0
20220925082320 58 0.0 0.0 0.00 0.00 0.00 14
20220925081318 59 90 2.0 4.0 0.00 0.00 0.00 12 1014.0
20220925080336 60 113 1.0 1.0 0.00 0.00 0.00 9
20220925075316 60 113 1.0 1.0 0.00 0.00 0.00 9 1013.0
20220925074317 61 140 2.0 4.0 0.00 0.00 0.00 9 1013.0
20220925073317 61 203 3.0 3.0 0.00 0.00 0.00 9 1013.0
20220925072316 62 180 2.0 2.0 0.00 0.00 0.00 9
20220925071336 61 182 2.0 3.0 0.00 0.00 0.00 9 1013.0
20220925070317 61 150 4.0 6.0 0.00 0.00 0.00 9
20220925065337 62 158 2.0 6.0 0.00 0.00 0.00 6
20220925064320 62 203 2.0 3.0 0.00 0.00 0.00 6 1013.0
20220925063316 62 177 3.0 5.0 0.00 0.00 0.00 6
20220925062317 61 163 5.0 6.0 0.00 0.00 0.00 9 1013.0
20220925061337 62 180 3.0 3.0 0.00 0.00 0.00 9 1013.0
20220925060319 62 180 3.0 3.0 0.00 0.00 0.00 6 1013.0
20220925055317 63 203 1.0 2.0 0.00 0.00 0.00 6 1013.0
20220925054337 63 169 2.0 6.0 0.00 0.00 0.00 6 1013.0
20220925053336 62 171 3.0 3.0 0.00 0.00 0.00 6 1013.0
20220925052317 62 209 3.0 4.0 0.00 0.00 0.00 6 1013.0
20220925051317 62 195 3.0 3.0 0.00 0.00 0.00 9 1014.0
20220925050316 62 164 3.0 4.0 0.00 0.00 0.00 9 1014.0
20220925045317 62 203 3.0 4.0 0.00 0.00 0.00 6 1014.0
20220925044316 62 180 4.0 6.0 0.00 0.00 0.00 6 1014.0
20220925043337 62 186 3.0 4.0 0.00 0.00 0.00 6 1014.0
20220925042338 62 198 4.0 6.0 0.00 0.00 0.00 6 1013.0
20220925041318 62 203 3.0 4.0 0.00 0.00 0.00 6 1014.0
20220925040318 62 169 3.0 6.0 0.00 0.00 0.00 6 1014.0
20220925035318 62 185 5.0 6.0 0.00 0.00 0.00 6 1013.0